Location: Castillon
(43.0896°N, 0.2156°E)
Time: 10:29:26
(UTC+00:00)

Cosmos 1544 Rocket - Pass Details

Date: 24 October 2021
Orbit: 603 x 631 km, 82.5° (Epoch: 08 December)

Event Time Altitude Azimuth Distance (km) Brightness Sun altitude
Rises 04:47:01 0° 357° (N) 2,910 7.0 -18.3°
Reaches altitude 10° 04:49:21 10° 3° (N) 1,994 6.2 -17.9°
Maximum altitude 04:53:36 47° 78° (ENE) 823 4.6 -17.1°
Drops below altitude 10° 04:57:48 10° 152° (SSE) 1,962 6.5 -16.3°
Sets 05:00:04 0° 159° (SSE) 2,857 7.3 -15.9°
